Location: Kitchener-Waterloo
(43.4500°N, 80.5000°W)
Time: 09:11:48
(UTC-04:00)

ISS - All Passes

Search period start: 01 April 2015 00:00
Search period end: 11 April 2015 00:00
Orbit: 396 x 405 km, 51.6° (Epoch: 01 April)

Date Brightness Start Highest point End Pass type
(mag) Time Alt. Az. Time Alt. Az. Time Alt. Az.
01 Apr - 00:32:18 10° WNW 00:35:09 27° NNW 00:37:59 10° NE night (unlit)
01 Apr - 02:09:52 10° NW 02:12:16 19° N 02:14:42 10° NE night (unlit)
01 Apr - 03:46:17 10° NW 03:49:19 36° NNE 03:52:21 10° E visible
01 Apr - 05:22:43 10° WNW 05:25:43 35° SW 05:28:41 10° SSE visible
01 Apr - 22:02:09 10° SSW 22:05:07 34° SE 22:08:08 10° ENE night (unlit)
01 Apr - 23:38:26 10° W 23:41:30 37° NNW 23:44:35 10° NE night (unlit)
02 Apr - 01:16:06 10° NW 01:18:32 19° N 01:20:57 10° NE night (unlit)
02 Apr - 02:52:51 10° NW 02:55:40 26° NNE 02:58:29 10° ENE night (unlit)
02 Apr - 04:29:04 10° WNW 04:32:19 69° SW 04:35:30 10° SE visible
02 Apr - 21:09:27 10° S 21:11:45 18° SE 21:14:07 10° E visible
02 Apr - 22:44:40 10° WSW 22:47:54 60° NNW 22:51:08 10° NE night (unlit)
03 Apr - 00:22:11 10° WNW 00:24:46 21° N 00:27:20 10° NE night (unlit)
03 Apr - 01:59:20 10° NW 02:01:56 21° N 02:04:31 10° ENE night (unlit)
03 Apr - 03:35:33 10° NW 03:38:46 65° NNE 03:41:59 10° ESE night (unlit)
03 Apr - 05:12:42 10° W 05:14:53 17° SW 05:16:59 10° S night (unlit)
03 Apr - 21:51:06 10° SW 21:54:20 76° SSE 21:57:36 10° ENE visible
03 Apr - 23:28:12 10° WNW 23:31:00 25° NNW 23:33:47 10° NE night (unlit)
04 Apr - 01:05:42 10° NW 01:08:08 19° N 01:10:35 10° NE night (unlit)
04 Apr - 02:42:03 10° NW 02:45:09 39° NNE 02:48:13 10° E night (unlit)
04 Apr - 04:18:34 10° WNW 04:21:29 31° SW 04:24:22 10° SSE night (unlit)
04 Apr - 20:57:45 10° SSW 21:00:49 39° SE 21:03:53 10° ENE visible
04 Apr - 22:34:13 10° W 22:37:14 35° NNW 22:40:17 10° NE visible
05 Apr - 00:11:52 10° NW 00:14:17 19° N 00:16:43 10° NE night (unlit)
05 Apr - 01:48:32 10° NW 01:51:24 28° NNE 01:54:16 10° E night (unlit)
05 Apr - 03:24:47 10° WNW 03:27:59 60° SW 03:31:10 10° SE night (unlit)
05 Apr - 20:04:51 10° S 20:07:20 21° SE 20:09:54 10° E daylight
05 Apr - 21:40:19 10° WSW 21:43:32 54° NNW 21:46:44 10° NE visible
05 Apr - 23:17:53 10° WNW 23:20:25 20° N 23:22:58 10° NE visible
06 Apr - 00:54:58 10° NW 00:57:36 22° NNE 01:00:14 10° ENE night (unlit)
06 Apr - 02:31:08 10° NW 02:34:23 73° NNE 02:37:37 10° ESE night (unlit)
06 Apr - 04:08:30 10° W 04:10:25 15° SW 04:12:16 10° SSW night (unlit)
06 Apr - 19:12:59 10° SSE 19:13:54 11° SE 19:14:56 10° ESE daylight
06 Apr - 20:46:35 10° SW 20:49:52 85° SE 20:53:08 10° ENE visible
06 Apr - 22:23:48 10° WNW 22:26:33 24° NNW 22:29:18 10° NE visible
07 Apr - 00:01:14 10° NW 00:03:42 19° N 00:06:10 10° NE visible
07 Apr - 01:37:33 10° NW 01:40:40 43° NNE 01:43:47 10° E night (unlit)
07 Apr - 03:14:08 10° WNW 03:16:57 27° SW 03:19:44 10° SSE night (unlit)
07 Apr - 19:53:06 10° SW 19:56:14 44° SE 19:59:22 10° ENE daylight
07 Apr - 21:29:42 10° W 21:32:42 32° NNW 21:35:41 10° NE visible
07 Apr - 23:07:21 10° NW 23:09:45 19° N 23:12:10 10° NE visible
08 Apr - 00:43:56 10° NW 00:46:51 30° NNE 00:49:46 10° E night (unlit)
08 Apr - 02:20:12 10° WNW 02:23:23 52° SW 02:26:31 10° SE night (unlit)
08 Apr - 19:00:00 10° SSW 19:02:39 23° SE 19:05:20 10° E daylight
08 Apr - 20:35:41 10° WSW 20:38:52 49° NNW 20:42:03 10° NE visible
08 Apr - 22:13:17 10° WNW 22:15:48 20° N 22:18:18 10° NE visible
08 Apr - 23:50:15 10° NW 23:52:57 23° NNE 23:55:38 10° ENE visible
09 Apr - 01:26:26 10° WNW 01:29:42 82° NE 01:32:56 10° ESE night (unlit)
09 Apr - 03:04:05 10° WSW 03:05:41 13° SW 03:07:12 10° SSW night (unlit)
09 Apr - 18:07:39 10° SSE 18:09:06 13° SE 18:10:39 10° ESE daylight
09 Apr - 19:41:49 10° WSW 19:45:05 85° NNW 19:48:22 10° ENE daylight
09 Apr - 21:19:07 10° WNW 21:21:49 23° NNW 21:24:31 10° NE visible
09 Apr - 22:56:28 10° NW 22:58:58 20° N 23:01:28 10° ENE visible
10 Apr - 00:32:44 10° NW 00:35:54 47° NNE 00:39:03 10° ESE night (unlit)
10 Apr - 02:09:25 10° W 02:12:08 24° SW 02:14:47 10° SSE night (unlit)
10 Apr - 18:48:10 10° SW 18:51:21 50° SE 18:54:32 10° ENE daylight
10 Apr - 20:24:54 10° W 20:27:51 30° NNW 20:30:48 10° NE visible
10 Apr - 22:02:31 10° NW 22:04:56 19° N 22:07:21 10° NE visible
10 Apr - 23:39:02 10° NW 23:42:00 31° NNE 23:44:58 10° E visible
